{"data":{"norad_id":66800,"epoch":"2026-05-24T17:43:22.386720Z","epoch_age_seconds":97879,"freshness":"FRESH","line1":"1 66800U 25278K   26144.73845355  .00037555  00000+0  13662-2 0  9995","line2":"2 66800  43.0032  44.5482 0001593 279.4366  80.6306 15.27606001 26847","mean_motion":15.27606001,"eccentricity":0.0001593,"inclination_deg":43.0032,"raan_deg":44.5482,"arg_perigee_deg":279.4366,"mean_anomaly_deg":80.6306,"bstar":0.0013662,"rev_number":2684,"period_min":94.265144222879,"perigee_km":481.8782662534,"apogee_km":484.06421533891,"semimajor_km":6861.1082407962,"source":"CELESTRAK","updated_at":"2026-05-25T13:38:21.328410Z"}}